| time (UTC) | temp F | wind direction | speed knots | gust knots | rain 1hr in | rain 24hr in | rain mn in | humidity % | barometer mb |
| 20260506162332 | 60 | 152 | 2.6 | 5.2 | 0.04 | 0.06 | 0.06 | 92 | 1008.7 |
| 20260506161317 | 60 | 152 | 2.6 | 4.3 | 0.04 | 0.05 | 0.05 | 91 | 1009.0 |
| 20260506160329 | 61 | 147 | 1.7 | 3.5 | 0.03 | 0.03 | 0.03 | 91 | 1009.2 |
| 20260506155400 | 61 | 178 | 2.6 | 7.8 | 0.03 | 0.03 | 0.03 | 90 | 1009.6 |
| 20260506154326 | 61 | 173 | 0.9 | 5.2 | 0.03 | 0.03 | 0.03 | 90 | 1009.4 |
| 20260506153315 | 61 | 164 | 1.7 | 5.2 | 0.02 | 0.02 | 0.02 | 89 | 1009.3 |
| 20260506152323 | 61 | 158 | 2.6 | 7.0 | 0.02 | 0.02 | 0.02 | 88 | 1009.4 |
| 20260506151325 | 62 | 132 | 1.7 | 2.6 | 0.01 | 0.01 | 0.01 | 86 | 1009.4 |
| 20260506150329 | 62 | 180 | 1.7 | 3.5 | 0.00 | 0.00 | 0.00 | 83 | 1009.7 |
| 20260506145315 | 63 | 174 | 2.6 | 4.3 | 0.00 | 0.00 | 0.00 | 81 | 1009.9 |
| 20260506144329 | 63 | 194 | 1.7 | 6.1 | 0.00 | 0.00 | 0.00 | 80 | 1009.9 |
| 20260506143314 | 64 | 183 | 2.6 | 4.3 | 0.00 | 0.00 | 0.00 | 79 | 1009.9 |
| 20260506142320 | 63 | 215 | 2.6 | 5.2 | 0.00 | 0.00 | 0.00 | 79 | 1009.7 |
| 20260506141333 | 64 | 163 | 2.6 | 5.2 | 0.00 | 0.00 | 0.00 | 79 | 1009.7 |
| 20260506140320 | 64 | 155 | 4.3 | 8.7 | 0.00 | 0.00 | 0.00 | 78 | 1009.6 |
| 20260506135351 | 64 | 174 | 3.5 | 7.0 | 0.00 | 0.00 | 0.00 | 78 | 1009.8 |
| 20260506134344 | 64 | 189 | 3.5 | 7.8 | 0.00 | 0.00 | 0.00 | 78 | 1010.0 |
| 20260506133358 | 64 | 221 | 2.6 | 7.8 | 0.00 | 0.00 | 0.00 | 78 | 1010.0 |
| 20260506132323 | 64 | 193 | 2.6 | 7.0 | 0.00 | 0.00 | 0.00 | 78 | 1009.9 |
| 20260506131400 | 64 | 162 | 4.3 | 9.6 | 0.00 | 0.00 | 0.00 | 79 | 1009.7 |
| 20260506130325 | 63 | 166 | 3.5 | 10.4 | 0.00 | 0.00 | 0.00 | 79 | 1009.8 |
| 20260506125328 | 63 | 162 | 2.6 | 7.0 | 0.00 | 0.00 | 0.00 | 79 | 1009.8 |
| 20260506124315 | 63 | 148 | 4.3 | 8.7 | 0.00 | 0.00 | 0.00 | 79 | 1009.6 |
| 20260506123329 | 63 | 199 | 2.6 | 6.1 | 0.00 | 0.00 | 0.00 | 80 | 1009.6 |
| 20260506122317 | 63 | 211 | 2.6 | 7.0 | 0.00 | 0.00 | 0.00 | 81 | 1009.6 |
| 20260506121325 | 63 | 178 | 3.5 | 8.7 | 0.00 | 0.00 | 0.00 | 81 | 1009.9 |
| 20260506120314 | 62 | 178 | 2.6 | 7.8 | 0.00 | 0.00 | 0.00 | 81 | 1009.9 |
| 20260506115320 | 62 | 167 | 1.7 | 8.7 | 0.00 | 0.00 | 0.00 | 82 | 1009.9 |
| 20260506114355 | 62 | 160 | 2.6 | 7.0 | 0.00 | 0.00 | 0.00 | 81 | 1009.8 |
| 20260506113320 | 62 | 180 | 4.3 | 5.2 | 0.00 | 0.00 | 0.00 | 82 | 1010.0 |
| 20260506112334 | 62 | 150 | 4.3 | 8.7 | 0.00 | 0.00 | 0.00 | 82 | 1009.8 |
| 20260506111322 | 62 | 129 | 3.5 | 7.0 | 0.00 | 0.00 | 0.00 | 82 | 1009.7 |
| 20260506110338 | 62 | 168 | 2.6 | 7.0 | 0.00 | 0.01 | 0.00 | 82 | 1009.8 |
| 20260506105321 | 62 | 182 | 2.6 | 8.7 | 0.00 | 0.01 | 0.00 | 82 | 1009.9 |
| 20260506104328 | 62 | 160 | 4.3 | 8.7 | 0.00 | 0.01 | 0.00 | 82 | 1009.6 |
| 20260506103314 | 62 | 153 | 2.6 | 5.2 | 0.00 | 0.01 | 0.00 | 82 | 1009.7 |
| 20260506102348 | 62 | 190 | 2.6 | 9.6 | 0.00 | 0.01 | 0.00 | 82 | 1009.8 |
| 20260506101315 | 62 | 177 | 5.2 | 7.8 | 0.00 | 0.01 | 0.00 | 82 | 1009.6 |
| 20260506100328 | 62 | 190 | 2.6 | 7.0 | 0.00 | 0.01 | 0.00 | 82 | 1009.7 |
| 20260506095312 | 62 | 151 | 2.6 | 9.6 | 0.00 | 0.01 | 0.00 | 81 | 1009.6 |
| 20260506094327 | 62 | 178 | 2.6 | 9.6 | 0.00 | 0.01 | 0.00 | 81 | 1009.5 |
| 20260506093315 | 63 | 186 | 2.6 | 7.0 | 0.00 | 0.01 | 0.00 | 81 | 1009.5 |
| 20260506092329 | 63 | 161 | 2.6 | 6.1 | 0.00 | 0.01 | 0.00 | 80 | 1009.6 |
| 20260506091335 | 63 | 168 | 4.3 | 7.0 | 0.00 | 0.01 | 0.00 | 80 | 1009.5 |
| 20260506090341 | 63 | 197 | 3.5 | 7.8 | 0.00 | 0.01 | 0.00 | 80 | 1009.5 |
| 20260506085324 | 63 | 157 | 2.6 | 7.0 | 0.00 | 0.01 | 0.00 | 79 | 1009.7 |
| 20260506084314 | 63 | 166 | 2.6 | 6.1 | 0.00 | 0.01 | 0.00 | 78 | 1009.7 |
| 20260506083344 | 63 | 132 | 3.5 | 6.1 | 0.00 | 0.01 | 0.00 | 76 | 1009.7 |
| 20260506082315 | 64 | 166 | 2.6 | 4.3 | 0.00 | 0.01 | 0.00 | 75 | 1009.8 |
| 20260506081318 | 64 | 136 | 1.7 | 4.3 | 0.00 | 0.01 | 0.00 | 74 | 1009.8 |
| 20260506080331 | 64 | 142 | 2.6 | 5.2 | 0.00 | 0.01 | 0.00 | 73 | 1009.8 |
| 20260506073326 | 65 | 188 | 2.6 | 9.6 | 0.00 | 0.01 | 0.00 | 70 | 1010.0 |
| 20260506072330 | 65 | 189 | 3.5 | 7.8 | 0.00 | 0.01 | 0.00 | 69 | 1010.0 |
| 20260506071315 | 66 | 182 | 3.5 | 7.8 | 0.00 | 0.01 | 0.00 | 68 | 1010.0 |
| 20260506070348 | 66 | 175 | 3.5 | 7.0 | 0.00 | 0.01 | 0.00 | 67 | 1009.9 |
| 20260506062314 | 67 | 161 | 2.6 | 7.0 | 0.00 | 0.01 | 0.00 | 65 | 1010.3 |
| 20260506061328 | 67 | 193 | 2.6 | 7.8 | 0.00 | 0.01 | 0.00 | 64 | 1010.3 |
| 20260506060317 | 67 | 193 | 3.5 | 13.0 | 0.00 | 0.01 | 0.00 | 64 | 1010.3 |
| 20260506051345 | 67 | 218 | 2.6 | 6.1 | 0.00 | 0.01 | 0.00 | 65 | 1010.7 |
| 20260506050331 | 67 | 143 | 3.5 | 8.7 | 0.00 | 0.01 | 0.00 | 64 | 1010.8 |
| 20260506044324 | 67 | 125 | 2.6 | 7.8 | 0.00 | 0.01 | 0.00 | 64 | 1010.9 |
| 20260506043311 | 67 | 197 | 5.2 | 12.2 | 0.00 | 0.01 | 0.00 | 64 | 1011.0 |
| 20260506042326 | 67 | 148 | 2.6 | 8.7 | 0.00 | 0.01 | 0.00 | 64 | 1010.9 |
| 20260506041331 | 67 | 207 | 3.5 | 8.7 | 0.00 | 0.01 | 0.00 | 64 | 1010.8 |
| 20260506040317 | 67 | 138 | 1.7 | 5.2 | 0.00 | 0.01 | 0.01 | 64 | 1010.9 |
| 20260506035316 | 67 | 191 | 3.5 | 7.8 | 0.00 | 0.01 | 0.01 | 63 | 1010.9 |
| 20260506034340 | 68 | 186 | 2.6 | 6.1 | 0.00 | 0.01 | 0.01 | 62 | 1010.8 |
| 20260506033324 | 68 | 180 | 3.5 | 8.7 | 0.00 | 0.01 | 0.01 | 61 | 1010.7 |
| 20260506032323 | 68 | 157 | 3.5 | 8.7 | 0.00 | 0.01 | 0.01 | 60 | 1010.7 |
| 20260506031338 | 69 | 147 | 3.5 | 8.7 | 0.00 | 0.01 | 0.01 | 58 | 1010.7 |
| 20260506030325 | 69 | 166 | 3.5 | 10.4 | 0.00 | 0.01 | 0.01 | 56 | 1010.7 |
| 20260506025329 | 69 | 169 | 2.6 | 5.2 | 0.00 | 0.01 | 0.01 | 55 | 1010.5 |
| 20260506024343 | 70 | 170 | 2.6 | 9.6 | 0.00 | 0.01 | 0.01 | 54 | 1010.4 |
| 20260506023337 | 70 | 188 | 3.5 | 6.1 | 0.00 | 0.01 | 0.01 | 53 | 1010.6 |
| 20260506022326 | 70 | 214 | 3.5 | 7.0 | 0.00 | 0.01 | 0.01 | 52 | 1010.5 |
| 20260506021312 | 71 | 172 | 3.5 | 5.2 | 0.00 | 0.01 | 0.01 | 52 | 1010.6 |
| 20260506020345 | 71 | 159 | 2.6 | 7.8 | 0.00 | 0.01 | 0.01 | 51 | 1010.6 |
| 20260506015327 | 71 | 158 | 3.5 | 7.8 | 0.00 | 0.01 | 0.01 | 51 | 1010.5 |
| 20260506014314 | 71 | 129 | 4.3 | 7.0 | 0.00 | 0.01 | 0.01 | 50 | 1010.5 |
| 20260506013327 | 72 | 149 | 3.5 | 5.2 | 0.00 | 0.01 | 0.01 | 50 | 1010.4 |
| 20260506012314 | 72 | 148 | 2.6 | 6.1 | 0.00 | 0.01 | 0.01 | 49 | 1010.2 |
| 20260506011318 | 72 | 180 | 4.3 | 7.0 | 0.00 | 0.01 | 0.01 | 47 | 1010.1 |
| 20260506010352 | 73 | 191 | 3.5 | 7.0 | 0.00 | 0.01 | 0.01 | 46 | 1009.9 |
| 20260506005316 | 73 | 148 | 3.5 | 5.2 | 0.00 | 0.01 | 0.01 | 45 | 1010.0 |
| 20260506004330 | 73 | 151 | 1.7 | 7.0 | 0.00 | 0.01 | 0.01 | 44 | 1009.9 |
| 20260506003318 | 74 | 180 | 2.6 | 8.7 | 0.00 | 0.01 | 0.01 | 43 | 1009.9 |
| 20260506002325 | 74 | 118 | 2.6 | 7.8 | 0.00 | 0.01 | 0.01 | 43 | 1009.9 |
| 20260506001332 | 74 | 182 | 2.6 | 5.2 | 0.00 | 0.01 | 0.01 | 42 | 1009.8 |
| 20260506000320 | 74 | 196 | 1.7 | 8.7 | 0.00 | 0.01 | 0.01 | 42 | 1009.6 |
| 20260505235352 | 74 | 186 | 1.7 | 5.2 | 0.00 | 0.01 | 0.01 | 42 | 1009.6 |
| 20260505234346 | 74 | 185 | 2.6 | 4.3 | 0.00 | 0.01 | 0.01 | 40 | 1009.5 |
| 20260505233312 | 75 | 179 | 1.7 | 4.3 | 0.00 | 0.01 | 0.01 | 40 | 1009.4 |
| 20260505232318 | 75 | 166 | 4.3 | 8.7 | 0.00 | 0.01 | 0.01 | 40 | 1009.4 |
| 20260505231325 | 75 | 202 | 2.6 | 7.8 | 0.00 | 0.01 | 0.01 | 40 | 1009.3 |
| 20260505230314 | 75 | 230 | 3.5 | 7.8 | 0.00 | 0.01 | 0.01 | 39 | 1009.1 |
| 20260505225337 | 76 | 211 | 2.6 | 5.2 | 0.00 | 0.01 | 0.01 | 38 | 1009.2 |
| 20260505224324 | 76 | 236 | 4.3 | 9.6 | 0.00 | 0.01 | 0.01 | 38 | 1009.1 |
| 20260505223314 | 76 | 201 | 3.5 | 5.2 | 0.00 | 0.01 | 0.01 | 37 | 1009.0 |
| 20260505222329 | 76 | 191 | 4.3 | 15.6 | 0.00 | 0.01 | 0.01 | 37 | 1008.9 |
| 20260505221336 | 77 | 219 | 2.6 | 9.6 | 0.00 | 0.01 | 0.01 | 37 | 1008.8 |
| 20260505220320 | 78 | 151 | 6.1 | 13.9 | 0.00 | 0.01 | 0.01 | 36 | 1008.9 |
| 20260505215325 | 78 | 172 | 5.2 | 9.6 | 0.00 | 0.01 | 0.01 | 36 | 1008.7 |
| 20260505214339 | 78 | 206 | 3.5 | 9.6 | 0.00 | 0.01 | 0.01 | 36 | 1008.6 |
| 20260505213323 | 78 | 217 | 6.1 | 10.4 | 0.00 | 0.01 | 0.01 | 36 | 1008.4 |
| 20260505212330 | 78 | 180 | 3.5 | 9.6 | 0.00 | 0.01 | 0.01 | 35 | 1008.5 |
| 20260505211335 | 78 | 204 | 6.1 | 13.9 | 0.00 | 0.01 | 0.01 | 34 | 1008.4 |
| 20260505210329 | 79 | 161 | 4.3 | 8.7 | 0.00 | 0.01 | 0.01 | 34 | 1008.2 |
| 20260505205353 | 79 | 189 | 5.2 | 9.6 | 0.00 | 0.01 | 0.01 | 34 | 1008.0 |
| 20260505204338 | 79 | 220 | 4.3 | 13.9 | 0.00 | 0.01 | 0.01 | 34 | 1008.1 |
| 20260505203327 | 79 | 182 | 4.3 | 10.4 | 0.00 | 0.01 | 0.01 | 35 | 1008.1 |
| 20260505202314 | 80 | 219 | 4.3 | 10.4 | 0.00 | 0.01 | 0.01 | 33 | 1008.1 |
| 20260505201319 | 80 | 236 | 6.1 | 13.0 | 0.00 | 0.01 | 0.01 | 33 | 1008.5 |
| 20260505200325 | 80 | 211 | 4.3 | 19.1 | 0.00 | 0.01 | 0.01 | 33 | 1008.3 |
| 20260505195328 | 80 | 263 | 3.5 | 8.7 | 0.00 | 0.01 | 0.01 | 36 | 1008.5 |
| 20260505194313 | 79 | 170 | 5.2 | 11.3 | 0.00 | 0.01 | 0.01 | 37 | 1008.4 |
| 20260505193318 | 80 | 213 | 4.3 | 10.4 | 0.00 | 0.01 | 0.01 | 35 | 1008.6 |
| 20260505192331 | 80 | 245 | 5.2 | 15.6 | 0.00 | 0.01 | 0.01 | 35 | 1008.7 |
| 20260505191338 | 80 | 211 | 4.3 | 7.8 | 0.00 | 0.01 | 0.01 | 36 | 1008.7 |
| 20260505190324 | 80 | 166 | 1.7 | 9.6 | 0.00 | 0.01 | 0.01 | 37 | 1008.8 |
| 20260505185354 | 79 | 107 | 3.5 | 8.7 | 0.00 | 0.01 | 0.01 | 39 | 1008.8 |
| 20260505184319 | 79 | 174 | 5.2 | 9.6 | 0.00 | 0.01 | 0.01 | 40 | 1009.1 |
| 20260505183331 | 79 | 163 | 5.2 | 8.7 | 0.00 | 0.01 | 0.01 | 40 | 1009.1 |
| 20260505182334 | 80 | 246 | 3.5 | 9.6 | 0.00 | 0.01 | 0.01 | 37 | 1009.4 |
| 20260505181328 | 80 | 225 | 5.2 | 8.7 | 0.00 | 0.01 | 0.01 | 37 | 1009.7 |
| 20260505180312 | 79 | 205 | 4.3 | 8.7 | 0.00 | 0.01 | 0.01 | 40 | 1009.5 |
| 20260505175315 | 79 | 221 | 5.2 | 11.3 | 0.00 | 0.01 | 0.01 | 39 | 1009.7 |
| 20260505174327 | 78 | 298 | 4.3 | 11.3 | 0.00 | 0.01 | 0.01 | 41 | 1009.7 |
| 20260505173358 | 78 | 178 | 3.5 | 11.3 | 0.00 | 0.01 | 0.01 | 41 | 1009.8 |
| 20260505172323 | 78 | 232 | 4.3 | 7.8 | 0.00 | 0.01 | 0.01 | 43 | 1009.7 |
| 20260505171328 | 77 | 211 | 4.3 | 9.6 | 0.00 | 0.01 | 0.01 | 45 | 1009.8 |
| 20260505170312 | 76 | 197 | 2.6 | 7.8 | 0.00 | 0.01 | 0.01 | 46 | 1010.1 |
| 20260505165334 | 76 | 286 | 4.3 | 8.7 | 0.00 | 0.01 | 0.01 | 45 | 1010.3 |
| 20260505164316 | 76 | 211 | 5.2 | 9.6 | 0.00 | 0.01 | 0.01 | 45 | 1010.4 |
| 20260505163346 | 76 | 267 | 4.3 | 7.8 | 0.00 | 0.01 | 0.01 | 47 | 1010.6 |